Meteo pe oră la Bolshie Konyushany

Astăzi, 10 Mai, Luni

Timp Temperatura Precipitaţii Vânt Presiune Umiditate
00:00 +8°C° 0 mm 4 m/s 753 mmHg 64%
01:00 +8°C° 0 mm 4 m/s 753 mmHg 63%
02:00 +8°C° 0 mm 5 m/s 753 mmHg 62%
03:00 +8°C° 0 mm 5 m/s 753 mmHg 65%
04:00 +7°C° 0 mm 4 m/s 753 mmHg 68%
05:00 +7°C° 0 mm 4 m/s 753 mmHg 71%
06:00 +8°C° 0 mm 4 m/s 754 mmHg 69%
07:00 +9°C° 0 mm 5 m/s 754 mmHg 68%
08:00 +12°C° 0 mm 5 m/s 754 mmHg 66%
09:00 +13°C° 0 mm 5 m/s 754 mmHg 63%
10:00 +15°C° 0 mm 6 m/s 754 mmHg 60%
11:00 +17°C° 0 mm 6 m/s 754 mmHg 57%
12:00 +17°C° 0 mm 6 m/s 754 mmHg 55%
13:00 +19°C° 0 mm 6 m/s 754 mmHg 53%
14:00 +20°C° 0 mm 6 m/s 754 mmHg 52%
15:00 +20°C° 0 mm 6 m/s 753 mmHg 55%
16:00 +20°C° 0 mm 5 m/s 753 mmHg 57%
17:00 +19°C° 0 mm 5 m/s 753 mmHg 60%
18:00 +18°C° 0 mm 4 m/s 753 mmHg 67%
19:00 +15°C° 0 mm 4 m/s 753 mmHg 73%
20:00 +13°C° 0 mm 3 m/s 753 mmHg 80%
21:00 +12°C° 0 mm 4 m/s 753 mmHg 80%
22:00 +11°C° 0 mm 4 m/s 754 mmHg 80%
23:00 +11°C° 0 mm 4 m/s 754 mmHg 81%

Mâine, 11 Mai, Marţi

Timp Temperatura Precipitaţii Vânt Presiune Umiditate
00:00 +10°C° 0 mm 4 m/s 754 mmHg 82%
01:00 +8°C° 0 mm 4 m/s 754 mmHg 83%
02:00 +8°C° 0 mm 4 m/s 754 mmHg 84%
03:00 +8°C° 0 mm 4 m/s 754 mmHg 84%
04:00 +7°C° 0 mm 4 m/s 754 mmHg 84%
05:00 +7°C° 0 mm 4 m/s 754 mmHg 83%
06:00 +9°C° 0 mm 5 m/s 754 mmHg 78%
07:00 +10°C° 0 mm 5 m/s 754 mmHg 72%
08:00 +13°C° 0 mm 6 m/s 754 mmHg 66%
09:00 +14°C° 0 mm 6 m/s 754 mmHg 61%
10:00 +15°C° 0 mm 6 m/s 754 mmHg 56%
11:00 +17°C° 0 mm 6 m/s 754 mmHg 51%
12:00 +17°C° 0 mm 6 m/s 754 mmHg 49%
13:00 +19°C° 0 mm 6 m/s 753 mmHg 46%
14:00 +19°C° 0 mm 6 m/s 753 mmHg 44%
15:00 +19°C° 0 mm 6 m/s 753 mmHg 47%
16:00 +19°C° 0 mm 5 m/s 752 mmHg 51%
17:00 +19°C° 0 mm 5 m/s 752 mmHg 54%
18:00 +17°C° 0 mm 4 m/s 752 mmHg 61%
19:00 +14°C° 0 mm 4 m/s 752 mmHg 68%
20:00 +13°C° 0 mm 3 m/s 751 mmHg 74%
21:00 +12°C° 0 mm 4 m/s 751 mmHg 76%
22:00 +12°C° 0 mm 4 m/s 752 mmHg 77%
23:00 +11°C° 0 mm 4 m/s 752 mmHg 79%

Poimâine, 12 Mai, Miercuri

Timp Temperatura Precipitaţii Vânt Presiune Umiditate
00:00 +11°C° 0 mm 4 m/s 751 mmHg 82%
01:00 +11°C° 0 mm 4 m/s 751 mmHg 86%
02:00 +10°C° 0 mm 3 m/s 751 mmHg 89%
03:00 +10°C° 0 mm 4 m/s 751 mmHg 91%
04:00 +10°C° 0 mm 4 m/s 751 mmHg 93%
05:00 +10°C° 0 mm 4 m/s 751 mmHg 95%
06:00 +10°C° 0 mm 5 m/s 751 mmHg 87%
07:00 +11°C° 0 mm 6 m/s 751 mmHg 80%
08:00 +12°C° 0 mm 7 m/s 751 mmHg 73%
09:00 +14°C° 0 mm 7 m/s 751 mmHg 67%
10:00 +14°C° 0 mm 7 m/s 751 mmHg 62%
11:00 +15°C° 0 mm 7 m/s 751 mmHg 57%
12:00 +16°C° 0 mm 7 m/s 750 mmHg 55%
13:00 +16°C° 0 mm 7 m/s 750 mmHg 54%
14:00 +17°C° 0 mm 7 m/s 750 mmHg 52%
15:00 +16°C° 0 mm 6 m/s 750 mmHg 54%
16:00 +16°C° 0 mm 5 m/s 749 mmHg 56%
17:00 +16°C° 0 mm 5 m/s 749 mmHg 57%
18:00 +15°C° 0 mm 4 m/s 748 mmHg 64%
19:00 +13°C° 0 mm 3 m/s 748 mmHg 70%
20:00 +12°C° 0 mm 2 m/s 747 mmHg 77%
21:00 +12°C° 0 mm 2 m/s 747 mmHg 78%
22:00 +11°C° 0 mm 1 m/s 746 mmHg 79%
23:00 +10°C° 0 mm 1 m/s 746 mmHg 80%

13 Mai, Joi

Timp Temperatura Precipitaţii Vânt Presiune Umiditate
00:00 +10°C° 0.1 mm 1 m/s 745 mmHg 80%
01:00 +9°C° 0.1 mm 2 m/s 744 mmHg 79%
02:00 +9°C° 0.1 mm 2 m/s 744 mmHg 79%
03:00 +9°C° 0.4 mm 2 m/s 743 mmHg 81%
04:00 +9°C° 0.4 mm 2 m/s 743 mmHg 82%
05:00 +8°C° 0.4 mm 2 m/s 742 mmHg 84%
06:00 +9°C° 0.7 mm 3 m/s 742 mmHg 86%
07:00 +9°C° 0.7 mm 3 m/s 742 mmHg 87%
08:00 +8°C° 0.7 mm 4 m/s 742 mmHg 89%
09:00 +9°C° 0.2 mm 5 m/s 742 mmHg 82%
10:00 +12°C° 0.2 mm 5 m/s 742 mmHg 75%
11:00 +13°C° 0.2 mm 6 m/s 742 mmHg 67%
12:00 +13°C° 0 mm 6 m/s 742 mmHg 68%
13:00 +13°C° 0 mm 6 m/s 742 mmHg 69%
14:00 +13°C° 0 mm 6 m/s 741 mmHg 70%
15:00 +11°C° 0.1 mm 6 m/s 742 mmHg 74%
16:00 +11°C° 0.1 mm 6 m/s 742 mmHg 78%
17:00 +10°C° 0.1 mm 6 m/s 742 mmHg 82%
18:00 +10°C° 0.3 mm 6 m/s 742 mmHg 84%
19:00 +11°C° 0.3 mm 6 m/s 742 mmHg 87%
20:00 +11°C° 0.3 mm 6 m/s 742 mmHg 89%
21:00 +11°C° 0.1 mm 6 m/s 742 mmHg 89%
22:00 +11°C° 0.1 mm 6 m/s 742 mmHg 88%
23:00 +11°C° 0.1 mm 6 m/s 742 mmHg 88%

14 Mai, Vineri

Timp Temperatura Precipitaţii Vânt Presiune Umiditate
00:00 +10°C° 0 mm 5 m/s 742 mmHg 89%
01:00 +11°C° 0 mm 4 m/s 742 mmHg 91%
02:00 +10°C° 0 mm 4 m/s 742 mmHg 93%
03:00 +10°C° 0.1 mm 4 m/s 742 mmHg 94%
04:00 +10°C° 0.1 mm 3 m/s 742 mmHg 95%
05:00 +10°C° 0.1 mm 3 m/s 741 mmHg 96%
06:00 +11°C° 0.3 mm 3 m/s 741 mmHg 97%
07:00 +11°C° 0.3 mm 3 m/s 741 mmHg 97%
08:00 +12°C° 0.3 mm 2 m/s 741 mmHg 97%
09:00 +12°C° 0.1 mm 2 m/s 741 mmHg 95%
10:00 +13°C° 0.1 mm 2 m/s 741 mmHg 92%
11:00 +13°C° 0.1 mm 2 m/s 741 mmHg 90%
12:00 +13°C° 0.2 mm 3 m/s 741 mmHg 86%
13:00 +14°C° 0.2 mm 3 m/s 742 mmHg 82%
14:00 +15°C° 0.2 mm 4 m/s 742 mmHg 78%
15:00 +14°C° 0.1 mm 3 m/s 742 mmHg 82%
16:00 +13°C° 0.1 mm 3 m/s 742 mmHg 86%
17:00 +14°C° 0.1 mm 2 m/s 742 mmHg 90%
18:00 +13°C° 0 mm 2 m/s 742 mmHg 91%
19:00 +13°C° 0 mm 2 m/s 743 mmHg 93%
20:00 +12°C° 0 mm 2 m/s 743 mmHg 95%
21:00 +12°C° 0 mm 2 m/s 743 mmHg 95%
22:00 +10°C° 0 mm 2 m/s 743 mmHg 95%
23:00 +10°C° 0 mm 2 m/s 743 mmHg 95%

15 Mai, Sâmbătă

Timp Temperatura Precipitaţii Vânt Presiune Umiditate
00:00 +10°C° 0 mm 2 m/s 744 mmHg 95%
01:00 +9°C° 0 mm 2 m/s 744 mmHg 95%
02:00 +9°C° 0 mm 2 m/s 744 mmHg 95%
03:00 +9°C° 0 mm 2 m/s 744 mmHg 95%
04:00 +9°C° 0 mm 2 m/s 744 mmHg 95%
05:00 +9°C° 0 mm 2 m/s 744 mmHg 95%
06:00 +10°C° 0 mm 2 m/s 744 mmHg 90%
07:00 +13°C° 0 mm 2 m/s 745 mmHg 85%
08:00 +15°C° 0 mm 2 m/s 745 mmHg 80%
09:00 +16°C° 0.1 mm 2 m/s 745 mmHg 75%
10:00 +17°C° 0.1 mm 3 m/s 745 mmHg 70%
11:00 +18°C° 0.1 mm 3 m/s 745 mmHg 65%
12:00 +19°C° 0.3 mm 3 m/s 745 mmHg 63%
13:00 +19°C° 0.3 mm 3 m/s 745 mmHg 61%
14:00 +19°C° 0.3 mm 3 m/s 745 mmHg 59%
15:00 +19°C° 0.2 mm 3 m/s 745 mmHg 61%
16:00 +19°C° 0.2 mm 3 m/s 745 mmHg 63%
17:00 +19°C° 0.2 mm 2 m/s 745 mmHg 64%
18:00 +17°C° 0.1 mm 2 m/s 745 mmHg 71%
19:00 +16°C° 0.1 mm 2 m/s 745 mmHg 79%
20:00 +14°C° 0.1 mm 2 m/s 745 mmHg 86%
21:00 +13°C° 0 mm 2 m/s 746 mmHg 88%
22:00 +13°C° 0 mm 2 m/s 746 mmHg 90%
23:00 +12°C° 0 mm 1 m/s 746 mmHg 91%
Arată mai mult

Formular de consimțământ

Meteoprog și furnizorii noștri de servicii pot stoca și accesa date personale, precum cookies, identificatori de dispozitiv sau alte tehnologii similare pe dispozitivul dumneavoastră și procesa astfel de date pentru a personaliza conținutul și reclamele, dar și pentru a oferi caracteristici de social media și pentru a analiza traficul.

  • Stocarea și/sau accesarea informațiilor pe dispozitivul dumneavoastră

    Cookies, identificatori de dispozitiv sau alte informații pot fi stocate sau accesate pe dispozitiv în scopurile indicate mai sus.

  • Reclame și conținut personalizat, evaluarea reclamelor și a conținutului, informații despre audiențe și dezvoltarea produselor

    Reclamele și conținutul pot fi personalizate pe baza unui profil. Pot fi adăugate date suplimentare pentru a personaliza mai bine reclamele și conținutul. Performanța reclamelor și conținutului poate fi măsurată. Pot fi obținute informații despre utilizatorii care au văzut reclamele și conținutul. Aceste date pot fi utilizate pentru a dezvolta sau îmbunătăți experiența utilizatorilor, sistemele și software-ul.

Dând clic pe ‘Sunt de acord’, permiteți utilizarea cookie-urilor menționate, a identificatorilor de dispozitiv, balizelor web sau altor tehnologii similare. Setările pot fi modificate din browser-ul dispozitivului dumneavoastră.

În anumite scopuri, interesele legitime pot prima asupra consimțământului. Puteți citi mai multe informații în acest sens în Politica privind Confidențialitatea Datelor și Cookie.